STARLINK-32316, 61860

Orbit data source: Space-Track

STARLINK-32316, 61860 is a payload satellite owned by SpaceX/Seattle (US) in LEO that was launched on Thu, 07 Nov 2024 UTC via an FALCON 9 launch vehicle from the Air Force Eastern Test Range (AFETR). Payload-class satellites include a variety of spacecraft equipped with specific instruments for various scientific and technological missions. These include communications satellites like Starlink; space stations such as the ISS; scientific satellites like the Hubble; Earth observation satellites from companies like Planet Labs, Umbra, and HawkEye 360; GPS; miniature CubeSats for education and research; and military/defense satellites.

Loading next visibility...
Identifier
61860, 2024-202R
Orbit
LEO
Country
Flag of USUS
Related business
Manufacturer
SpaceX/Seattle
Mission
Operational Commercial Communications
Bus & Motor
STARLINK V2M, Unknown motor
Mass
730 kg wet, ~700 kg dry
Launch date (UTC)
2024-11-07 (11 months ago)
Launch vehicle
FALCON 9
Launch site
Air Force Eastern Test Range (AFETR)
Object type
Payload
Rocket body
Debris
Shape & HBR
Box + 2 Pan, 17.7 m
Radar Cross Section
33.884 m², Large (>1 m²)

Expand to show TLE details & history
Last TLE update: 10 hours ago

TLE from 10 hours ago
0 STARLINK-32316
1 61860U 24202R   25286.59420510  .00004065  00000-0  15705-3 0  9996
2 61860  42.9998 345.0437 0001440 269.1978  90.8709 15.27601082 52878
Epoch: 2025-10-13T14:15Z
TLE epoch observation values (Epoch: 2025-10-13T14:15:39.320Z)
Latitude
-0°
Longitude
108.73512°
Altitude
482.777 km
Speed
7.626 km/s
True Right ascension
23h 00m 10s
True Declination
0° 00' 00"
Sunlit
Object was in full shadow at epoch
Visualization orbit readout
Latitude
Unknown
Longitude
Unknown
Altitude
Unknown
Speed
Unknown
Apparent Right ascension
Unknown
Apparent Declination
Unknown
Sunlit
N/A
Visualization observer readout
Local Sidereal Time
18:49:15
Azimuth
Unknown
Elevation
Unknown
Doppler factor
Unknown
Orbital elements
Apogee altitude
485.919 km
Perigee altitude
483.943 km
Semi-major axis
6,863.068 km
Eccentricity
0.00014
Inclination
42.9998°
RAAN
345.0437°
Arg. of periapsis
269.1978°
True anomaly
90.8874°
Mean anomaly
90.8709°
Eccentric anomaly
90.87915°
Mean motion
3.81738 °/min
Orbital period
94.31 mins
BSTAR
0.00015705
Loading maneuver chart data...
Computing Atmospheric mass density...
Loading historical data...
Loading historical data...
Loading historical data...
Loading historical data...
Loading historical data...
Loading historical data...
Loading historical data...

Documentation

Showing up to 5 results
|